Simultaneous Nadir Overpasses (SNOs) Predictions

Prediction of SNOs between AQUA and METOP-B Satellite Orbit:

Table of predicted SNOs for the next 14.0 days since TLE Epoch: 7/31/2020
Index Date (AQUA) Time (AQUA) Lat,Lon (AQUA) SZA (AQUA ) Date (METOP-B) Time (METOP-B) Lat,Lon (METOP-B) SZA (METOP-B ) Distance(km) Time Diff (sec)
1 08/03/2020 13:14:57 -73.80, 155.60 123.44 08/03/2020 13:13:49 -73.81, 155.67 123.42 2.52 68
2 08/03/2020 14:04:26 73.86, -36.90 56.64 08/03/2020 14:04:28 73.86, -36.88 56.64 0.75 2
3 08/03/2020 14:53:53 -74.00, 130.42 123.20 08/03/2020 14:55:05 -74.03, 130.87 123.19 14.17 72
4 08/06/2020 08:49:11 -73.79,-137.95 122.68 08/06/2020 08:48:09 -73.80,-137.93 122.66 1.69 62
5 08/06/2020 09:38:40 73.85, 29.55 57.40 08/06/2020 09:38:48 73.85, 29.52 57.40 1.08 8
6 08/06/2020 10:28:12 -74.20,-163.60 122.22 08/06/2020 10:29:22 -74.22,-162.24 122.26 41.04 70
7 08/09/2020 04:23:26 -73.79, -71.50 121.89 08/09/2020 04:22:30 -73.80, -71.54 121.87 1.78 56
8 08/09/2020 05:12:55 73.85, 95.99 58.19 08/09/2020 05:13:09 73.85, 95.91 58.19 2.57 14
9 08/09/2020 06:02:32 -74.45, -97.75 121.15 08/09/2020 06:03:39 -74.41, -95.35 121.29 71.99 67
10 08/11/2020 23:57:41 -73.79, -5.06 121.07 08/11/2020 23:56:51 -73.79, -5.14 121.05 2.56 50
11 08/12/2020 00:47:10 73.85, 162.42 59.02 08/12/2020 00:47:29 73.89, 162.42 59.05 3.83 19
12 08/14/2020 19:31:56 -73.84, 61.25 120.15 08/14/2020 19:31:10 -73.83, 61.36 120.15 3.60 46
13 08/14/2020 20:21:24 73.86,-131.15 59.89 08/14/2020 20:21:49 73.88,-131.20 59.90 2.31 25
